 day,  time,  air_temp(C),  RH(%),  ground_temp10cm(C),  ground_temp20cm(C),  ground_temp40cm(C),  precipitation(mm/h),  Solar_Radiation(MJ/m2h),  lack, 
 06/03/01, 01:00,   1.4,  99,   0.3,   0.9,   1.8,   0.5,  0.00, 
 06/03/01, 02:00,   1.5,  99,   0.3,   0.8,   1.8,   0.0,  0.00, 
 06/03/01, 03:00,   3.4,  99,   0.3,   0.9,   1.8,   0.5,  0.00, 
 06/03/01, 04:00,   3.9,  99,   0.3,   0.8,   1.8,   0.0,  0.00, 
 06/03/01, 05:00,   2.9,  99,   0.3,   0.8,   1.8,   0.5,  0.00, 
 06/03/01, 06:00,   2.4,  99,   0.3,   0.8,   1.7,   1.0,  0.00, 
 06/03/01, 07:00,   3.0,  99,   0.3,   0.8,   1.7,   1.0,  0.00, 
 06/03/01, 08:00,   4.1,  99,   0.3,   0.8,   1.7,   0.5,  0.08, 
 06/03/01, 09:00,   3.0,  99,   0.3,   0.8,   1.7,   1.0,  0.20, 
 06/03/01, 10:00,   3.4,  99,   0.3,   0.8,   1.7,   1.5,  0.24, 
 06/03/01, 11:00,   3.1,  99,   0.3,   0.8,   1.7,   1.5,  0.41, 
 06/03/01, 12:00,   4.1,  99,   0.3,   0.8,   1.7,   3.5,  0.29, 
 06/03/01, 13:00,   6.2,  99,   0.3,   0.8,   1.7,   1.0,  0.47, 
 06/03/01, 14:00,   6.2,  99,   0.3,   0.8,   1.7,   1.0,  0.37, 
 06/03/01, 15:00,   6.3,  99,   0.3,   0.8,   1.7,   1.5,  0.22, 
 06/03/01, 16:00,   3.7,  99,   0.3,   0.8,   1.7,   2.0,  0.12, 
 06/03/01, 17:00,   1.5,  99,   0.3,   0.8,   1.7,   4.0,  0.00, 
 06/03/01, 18:00,   0.0,  99,   0.3,   0.8,   1.6,   4.0,  0.00, 
 06/03/01, 19:00,   0.1,  99,   0.3,   0.8,   1.6,   4.0,  0.00, 
 06/03/01, 20:00,  -2.1,  99,   0.3,   0.8,   1.6,   4.5,  0.00, 
 06/03/01, 21:00,  -2.3,  99,   0.3,   0.8,   1.6,   4.0,  0.00, 
 06/03/01, 22:00,  -1.8,  99,   0.3,   0.8,   1.6,   2.0,  0.00, 
 06/03/01, 23:00,  -2.7,  99,   0.3,   0.8,   1.6,   1.0,  0.00, 
 06/03/02, 00:00,  -2.8,  98,   0.3,   0.8,   1.6,   0.0,  0.00, 
 06/03/02, 01:00,  -3.4,  99,   0.3,   0.8,   1.6,   0.0,  0.00, 
 06/03/02, 02:00,  -4.1,  99,   0.3,   0.9,   1.6,   0.0,  0.00, 
 06/03/02, 03:00,  -5.1,  99,   0.4,   0.9,   1.6,   0.5,  0.00, 
 06/03/02, 04:00,  -5.6,  98,   0.4,   0.9,   1.6,   0.0,  0.00, 
 06/03/02, 05:00,  -5.7,  98,   0.4,   0.9,   1.6,   0.0,  0.00, 
 06/03/02, 06:00,  -6.1,  96,   0.4,   0.8,   1.6,   0.0,  0.00, 
 06/03/02, 07:00,  -6.4,  93,   0.4,   0.8,   1.6,   0.0,  0.00, 
 06/03/02, 08:00,  -6.1,  90,   0.4,   0.9,   1.6,   0.0,  0.17, 
 06/03/02, 09:00,  -5.0,  99,   0.4,   0.9,   1.6,   0.0,  0.40, 
 06/03/02, 10:00,  -3.4,  99,   0.4,   0.9,   1.6,   0.5,  0.62, 
 06/03/02, 11:00,  -3.1,  99,   0.5,   0.9,   1.6,   0.0,  0.70, 
 06/03/02, 12:00,  -3.0,  90,   0.5,   0.9,   1.7,   0.0,  1.19, 
 06/03/02, 13:00,  -2.6,  86,   0.5,   0.9,   1.8,   0.0,  1.33, 
 06/03/02, 14:00,  -2.8,  92,   0.5,   0.9,   1.8,   0.0,  1.34, 
 06/03/02, 15:00,  -3.2,  80,   0.5,   0.9,   1.8,   0.0,  0.98, 
 06/03/02, 16:00,  -4.0,  84,   0.5,   0.9,   1.8,   0.5,  0.43, 
 06/03/02, 17:00,  -4.9,  86,   0.5,   0.9,   1.8,   0.0,  0.24, 
 06/03/02, 18:00,  -5.4,  95,   0.5,   0.9,   1.7,   0.0,  0.05, 
 06/03/02, 19:00,  -7.1,  94,   0.5,   0.9,   1.7,   0.0,  0.00, 
 06/03/02, 20:00,  -7.0,  93,   0.5,   0.9,   1.7,   0.0,  0.00, 
 06/03/02, 21:00,  -7.8,  95,   0.5,   0.9,   1.7,   0.0,  0.00, 
 06/03/02, 22:00,  -8.2,  94,   0.4,   0.9,   1.7,   0.0,  0.00, 
 06/03/02, 23:00,  -7.6,  93,   0.4,   0.9,   1.7,   0.0,  0.00, 
 06/03/03, 00:00,  -7.1,  95,   0.4,   0.9,   1.7,   0.0,  0.00, 
 06/03/03, 01:00,  -7.0,  97,   0.4,   0.9,   1.7,   0.0,  0.00, 
 06/03/03, 02:00,  -7.5,  95,   0.4,   0.9,   1.7,   0.0,  0.00, 
 06/03/03, 03:00,  -7.3,  95,   0.5,   0.9,   1.7,   0.0,  0.00, 
 06/03/03, 04:00,  -7.3,  95,   0.5,   0.9,   1.7,   0.0,  0.00, 
 06/03/03, 05:00,  -7.2,  94,   0.5,   0.9,   1.7,   0.0,  0.00, 
 06/03/03, 06:00,  -7.1,  94,   0.5,   0.9,   1.7,   0.0,  0.00, 
 06/03/03, 07:00,  -7.6,  92,   0.5,   0.9,   1.7,   0.0,  0.00, 
 06/03/03, 08:00,  -6.6,  89,   0.5,   0.9,   1.7,   0.0,  0.21, 
 06/03/03, 09:00,  -5.8,  90,   0.5,   0.9,   1.7,   0.0,  0.43, 
 06/03/03, 10:00,  -5.9,  97,   0.5,   0.9,   1.7,   0.0,  0.53, 
 06/03/03, 11:00,  -5.1,  97,   0.5,   0.9,   1.7,   0.5,  0.79, 
 06/03/03, 12:00,  -5.8,  94,   0.5,   0.9,   1.7,   0.0,  0.60, 
 06/03/03, 13:00,  -5.6,  88,   0.5,   0.9,   1.7,   0.0,  0.72, 
 06/03/03, 14:00,  -3.7,  80,   0.5,   0.9,   1.7,   0.0,  1.35, 
 06/03/03, 15:00,  -4.4,  83,   0.5,   0.9,   1.7,   0.0,  1.09, 
 06/03/03, 16:00,  -5.1,  80,   0.5,   0.9,   1.7,   0.5,  1.34, 
 06/03/03, 17:00,  -5.8,  89,   0.5,   0.9,   1.7,   0.0,  0.69, 
 06/03/03, 18:00,  -6.7,  94,   0.5,   0.9,   1.7,   0.0,  0.13, 
 06/03/03, 19:00,  -7.7,  94,   0.5,   0.9,   1.7,   0.0,  0.00, 
 06/03/03, 20:00,  -8.6,  94,   0.5,   1.0,   1.7,   0.0,  0.00, 
 06/03/03, 21:00,  -8.4,  94,   0.5,   0.9,   1.7,   0.0,  0.00, 
 06/03/03, 22:00,  -8.9,  90,   0.5,   0.9,   1.7,   0.0,  0.00, 
 06/03/03, 23:00,  -9.4,  82,   0.5,   0.9,   1.7,   0.0,  0.00, 
 06/03/04, 00:00,  -9.3,  76,   0.5,   1.0,   1.7,   0.0,  0.00, 
 06/03/04, 01:00,  -9.8,  76,   0.5,   1.0,   1.7,   0.0,  0.00, 
 06/03/04, 02:00,  -8.1,  63,   0.5,   1.0,   1.7,   0.0,  0.00, 
 06/03/04, 03:00,  -8.9,  66,   0.5,   0.9,   1.7,   0.0,  0.00, 
 06/03/04, 04:00,  -9.3,  72,   0.5,   0.9,   1.7,   0.0,  0.00, 
 06/03/04, 05:00,  -9.6,  78,   0.5,   0.9,   1.7,   0.0,  0.00, 
 06/03/04, 06:00,  -9.7,  74,   0.5,   1.0,   1.7,   0.0,  0.00, 
 06/03/04, 07:00,  -8.3,  66,   0.5,   1.0,   1.7,   0.0,  0.00, 
 06/03/04, 08:00,  -7.6,  72,   0.5,   1.0,   1.7,   0.0,  0.31, 
 06/03/04, 09:00,  -6.0,  66,   0.5,   1.0,   1.7,   0.0,  0.55, 
 06/03/04, 10:00,  -4.2,  74,   0.5,   1.0,   1.7,   0.0,  0.76, 
 06/03/04, 11:00,  -3.7,  70,   0.5,   1.0,   1.7,   0.0,  0.92, 
 06/03/04, 12:00,  -2.9,  65,   0.5,   0.9,   1.7,   0.0,  1.07, 
 06/03/04, 13:00,  -2.1,  55,   0.5,   0.9,   1.7,   0.0,  1.45, 
 06/03/04, 14:00,  -0.7,  53,   0.5,   0.9,   1.7,   0.0,  2.60, 
 06/03/04, 15:00,  -1.2,  55,   0.6,   0.9,   1.7,   0.0,  2.72, 
 06/03/04, 16:00,  -1.7,  53,   0.5,   0.9,   1.7,   0.0,  2.02, 
 06/03/04, 17:00,  -1.8,  44,   0.5,   0.9,   1.7,   0.0,  1.06, 
 06/03/04, 18:00,  -3.3,  64,   0.5,   0.9,   1.7,   0.0,  0.19, 
 06/03/04, 19:00,  -4.1,  65,   0.5,   0.9,   1.7,   0.0,  0.00, 
 06/03/04, 20:00,  -4.7,  67,   0.5,   0.9,   1.7,   0.0,  0.00, 
 06/03/04, 21:00,  -5.3,  70,   0.5,   0.9,   1.7,   0.0,  0.00, 
 06/03/04, 22:00,  -6.0,  82,   0.5,   0.9,   1.7,   0.0,  0.00, 
 06/03/04, 23:00,  -5.4,  76,   0.5,   0.9,   1.7,   0.0,  0.00, 
 06/03/05, 00:00,  -5.6,  77,   0.5,   0.9,   1.7,   0.0,  0.00, 
 06/03/05, 01:00,  -6.4,  80,   0.5,   0.9,   1.7,   0.0,  0.00, 
 06/03/05, 02:00,  -6.4,  76,   0.5,   0.9,   1.7,   0.0,  0.00, 
 06/03/05, 03:00,  -7.3,  75,   0.5,   0.9,   1.7,   0.0,  0.00, 
 06/03/05, 04:00,  -6.1,  74,   0.5,   0.9,   1.7,   0.0,  0.00, 
 06/03/05, 05:00,  -5.9,  76,   0.5,   0.9,   1.7,   0.0,  0.00, 
 06/03/05, 06:00,  -7.1,  79,   0.5,   0.9,   1.7,   0.0,  0.00, 
 06/03/05, 07:00,  -6.7,  69,   0.5,   0.9,   1.7,   0.0,  0.03, 
 06/03/05, 08:00,  -4.4,  62,   0.5,   0.9,   1.7,   0.0,  0.43, 
 06/03/05, 09:00,  -1.8,  55,   0.4,   0.9,   1.7,   0.5,  1.41, 
 06/03/05, 10:00,  -0.4,  42,   0.5,   0.9,   1.7,   0.0,  2.02, 
 06/03/05, 11:00,   0.7,  36,   0.5,   0.9,   1.7,   0.0,  1.98, 
 06/03/05, 12:00,   2.7,  33,   0.5,   0.9,   1.7,   0.0,  2.52, 
 06/03/05, 13:00,   3.5,  42,   0.5,   0.9,   1.7,   0.0,  2.23, 
 06/03/05, 14:00,   3.9,  45,   0.5,   0.9,   1.7,   0.0,  1.61, 
 06/03/05, 15:00,   2.8,  45,   0.5,   0.9,   1.7,   0.0,  0.88, 
 06/03/05, 16:00,   2.0,  45,   0.5,   0.9,   1.7,   0.0,  0.71, 
 06/03/05, 17:00,   1.6,  51,   0.5,   0.9,   1.7,   0.0,  0.48, 
 06/03/05, 18:00,   1.0,  52,   0.5,   0.9,   1.7,   0.0,  0.10, 
 06/03/05, 19:00,   0.6,  61,   0.4,   0.9,   1.7,   0.0,  0.00, 
 06/03/05, 20:00,   0.5,  62,   0.5,   0.9,   1.7,   0.0,  0.00, 
 06/03/05, 21:00,   0.9,  61,   0.4,   0.9,   1.7,   0.0,  0.00, 
 06/03/05, 22:00,   1.0,  62,   0.4,   0.9,   1.7,   0.0,  0.00, 
 06/03/05, 23:00,   1.0,  63,   0.4,   0.9,   1.7,   0.0,  0.00, 
 06/03/06, 00:00,   0.8,  63,   0.4,   0.9,   1.7,   0.0,  0.00, 
 06/03/06, 01:00,  -0.8,  81,   0.4,   0.9,   1.7,   0.0,  0.00, 
 06/03/06, 02:00,  -0.2,  68,   0.4,   0.9,   1.7,   0.0,  0.00, 
 06/03/06, 03:00,  -0.2,  74,   0.4,   0.9,   1.7,   0.0,  0.00, 
 06/03/06, 04:00,  -2.1,  99,   0.4,   0.9,   1.7,   0.0,  0.00, 
 06/03/06, 05:00,  -0.4,  99,   0.4,   0.9,   1.7,   2.0,  0.00, 
 06/03/06, 06:00,  -0.3,  99,   0.4,   0.9,   1.7,   1.0,  0.00, 
 06/03/06, 07:00,  -0.3,  99,   0.4,   0.9,   1.7,   1.0,  0.00, 
 06/03/06, 08:00,  -0.1,  99,   0.4,   0.8,   1.7,   0.5,  0.00, 
 06/03/06, 09:00,   0.1,  99,   0.4,   0.9,   1.7,   0.0,  0.00, 
 06/03/06, 10:00,   0.0,  99,   0.4,   0.9,   1.7,   0.5,  0.04, 
 06/03/06, 11:00,   0.4,  99,   0.4,   0.9,   1.7,   0.0,  0.09, 
 06/03/06, 12:00,   0.7,  99,   0.4,   0.9,   1.7,   0.0,  0.14, 
 06/03/06, 13:00,   0.9,  99,   0.4,   0.9,   1.7,   0.0,  0.28, 
 06/03/06, 14:00,   1.1,  99,   0.4,   0.9,   1.7,   0.0,  0.26, 
 06/03/06, 15:00,   1.0,  99,   0.4,   0.9,   1.7,   0.0,  0.17, 
 06/03/06, 16:00,   1.0,  99,   0.4,   0.9,   1.7,   0.5,  0.11, 
 06/03/06, 17:00,   0.9,  99,   0.4,   0.9,   1.7,   0.5,  0.06, 
 06/03/06, 18:00,   0.6,  99,   0.4,   0.9,   1.7,   0.0,  0.00, 
 06/03/06, 19:00,   1.0,  99,   0.4,   0.9,   1.7,   0.0,  0.00, 
 06/03/06, 20:00,   1.3,  96,   0.4,   0.9,   1.7,   0.0,  0.00, 
 06/03/06, 21:00,   0.4,  99,   0.4,   0.9,   1.7,   0.0,  0.00, 
 06/03/06, 22:00,  -0.3,  99,   0.4,   0.9,   1.7,   0.0,  0.00, 
 06/03/06, 23:00,  -0.4,  99,   0.4,   0.9,   1.7,   1.0,  0.00, 
 06/03/07, 00:00,  -0.6,  99,   0.4,   0.9,   1.7,   0.0,  0.00, 
 06/03/07, 01:00,  -0.7,  99,   0.4,   0.9,   1.7,   0.0,  0.00, 
 06/03/07, 02:00,  -1.5,  98,   0.4,   0.9,   1.7,   0.0,  0.00, 
 06/03/07, 03:00,  -2.9,  98,   0.5,   0.9,   1.7,   0.0,  0.00, 
 06/03/07, 04:00,  -3.4,  96,   0.5,   0.8,   1.7,   0.0,  0.00, 
 06/03/07, 05:00,  -3.3,  94,   0.5,   0.9,   1.7,   0.0,  0.00, 
 06/03/07, 06:00,  -4.6,  93,   0.5,   0.8,   1.7,   0.0,  0.00, 
 06/03/07, 07:00,  -5.0,  93,   0.5,   0.8,   1.7,   0.0,  0.01, 
 06/03/07, 08:00,  -3.3,  95,   0.5,   0.8,   1.7,   0.5,  0.75, 
 06/03/07, 09:00,  -1.1,  90,   0.5,   0.9,   1.7,   0.0,  1.40, 
 06/03/07, 10:00,   1.0,  92,   0.5,   0.9,   1.7,   0.0,  2.24, 
 06/03/07, 11:00,   2.6,  89,   0.5,   0.9,   1.7,   0.0,  2.87, 
 06/03/07, 12:00,   3.1,  86,   0.5,   0.9,   1.7,   0.0,  3.01, 
 06/03/07, 13:00,   4.6,  72,   0.5,   0.9,   1.7,   0.0,  3.04, 
 06/03/07, 14:00,   6.2,  55,   0.5,   0.9,   1.7,   0.0,  2.76, 
 06/03/07, 15:00,   6.7,  50,   0.5,   0.9,   1.7,   0.0,  2.36, 
 06/03/07, 16:00,   5.2,  48,   0.5,   0.9,   1.7,   0.0,  1.68, 
 06/03/07, 17:00,   4.1,  51,   0.5,   0.9,   1.7,   0.0,  0.79, 
 06/03/07, 18:00,   2.5,  53,   0.5,   0.9,   1.7,   0.0,  0.21, 
 06/03/07, 19:00,   0.9,  60,   0.5,   0.9,   1.7,   0.0,  0.00, 
 06/03/07, 20:00,  -0.8,  67,   0.5,   0.9,   1.7,   0.0,  0.00, 
 06/03/07, 21:00,  -0.7,  60,   0.5,   0.9,   1.7,   0.0,  0.00, 
 06/03/07, 22:00,  -0.7,  52,   0.5,   0.9,   1.7,   0.0,  0.00, 
 06/03/07, 23:00,  -0.3,  51,   0.5,   0.8,   1.7,   0.0,  0.00, 
 06/03/08, 00:00,  -0.7,  60,   0.5,   0.9,   1.7,   0.0,  0.00, 
 06/03/08, 01:00,  -0.7,  68,   0.5,   0.9,   1.7,   0.0,  0.00, 
 06/03/08, 02:00,  -0.6,  70,   0.5,   0.9,   1.7,   0.0,  0.00, 
 06/03/08, 03:00,  -1.2,  74,   0.5,   0.9,   1.7,   0.0,  0.00, 
 06/03/08, 04:00,   0.7,  64,   0.5,   0.8,   1.7,   0.0,  0.00, 
 06/03/08, 05:00,   0.8,  66,   0.5,   0.9,   1.7,   0.0,  0.00, 
 06/03/08, 06:00,  -0.3,  79,   0.5,   0.9,   1.7,   0.0,  0.00, 
 06/03/08, 07:00,  -0.1,  83,   0.5,   0.9,   1.7,   0.0,  0.01, 
 06/03/08, 08:00,   2.5,  70,   0.5,   0.8,   1.7,   0.0,  0.24, 
 06/03/08, 09:00,   2.5,  74,   0.5,   0.9,   1.7,   0.0,  0.73, 
 06/03/08, 10:00,   3.1,  75,   0.5,   0.9,   1.7,   0.0,  1.20, 
 06/03/08, 11:00,   3.8,  66,   0.5,   0.9,   1.7,   0.0,  1.59, 
 06/03/08, 12:00,   4.3,  61,   0.5,   0.9,   1.7,   0.0,  2.19, 
 06/03/08, 13:00,   4.7,  56,   0.5,   0.9,   1.7,   0.0,  2.61, 
 06/03/08, 14:00,   4.1,  59,   0.5,   0.9,   1.7,   0.0,  1.83, 
 06/03/08, 15:00,   4.1,  51,   0.5,   0.9,   1.7,   0.0,  2.01, 
 06/03/08, 16:00,   3.8,  47,   0.5,   0.9,   1.7,   0.0,  1.51, 
 06/03/08, 17:00,   2.7,  44,   0.5,   0.9,   1.7,   0.0,  0.79, 
 06/03/08, 18:00,   1.3,  47,   0.5,   0.9,   1.7,   0.0,  0.15, 
 06/03/08, 19:00,   0.9,  46,   0.5,   0.9,   1.7,   0.0,  0.00, 
 06/03/08, 20:00,   1.1,  37,   0.5,   0.9,   1.7,   0.0,  0.00, 
 06/03/08, 21:00,   0.7,  27,   0.5,   0.9,   1.7,   0.0,  0.00, 
 06/03/08, 22:00,  -0.6,  33,   0.5,   0.9,   1.7,   0.0,  0.00, 
 06/03/08, 23:00,  -3.6,  91,   0.5,   0.9,   1.7,   0.0,  0.00, 
 06/03/09, 00:00,  -4.4,  95,   0.5,   0.9,   1.7,   0.0,  0.00, 
 06/03/09, 01:00,  -5.3,  99,   0.5,   0.9,   1.7,   0.0,  0.00, 
 06/03/09, 02:00,  -5.4,  99,   0.5,   0.9,   1.7,   0.0,  0.00, 
 06/03/09, 03:00,  -5.6,  99,   0.5,   0.8,   1.7,   0.0,  0.00, 
 06/03/09, 04:00,  -6.6,  98,   0.5,   0.8,   1.7,   0.0,  0.00, 
 06/03/09, 05:00,  -6.8,  98,   0.5,   0.9,   1.7,   0.0,  0.00, 
 06/03/09, 06:00,  -7.4,  98,   0.5,   0.9,   1.7,   0.0,  0.00, 
 06/03/09, 07:00,  -7.7,  99,   0.5,   0.9,   1.7,   0.0,  0.05, 
 06/03/09, 08:00,  -5.3,  99,   0.5,   0.9,   1.7,   0.0,  0.44, 
 06/03/09, 09:00,  -3.3,  88,   0.5,   0.9,   1.7,   0.0,  0.98, 
 06/03/09, 10:00,   0.7,  69,   0.5,   0.9,   1.7,   0.0,  1.61, 
 06/03/09, 11:00,   2.8,  61,   0.5,   0.9,   1.7,   0.0,  2.20, 
 06/03/09, 12:00,   3.4,  52,   0.6,   0.9,   1.7,   0.0,  2.47, 
 06/03/09, 13:00,   4.9,  35,   0.6,   0.9,   1.7,   0.0,  2.44, 
 06/03/09, 14:00,   5.5,  37,   0.6,   0.9,   1.7,   0.0,  2.30, 
 06/03/09, 15:00,   5.9,  38,   0.5,   0.9,   1.7,   0.0,  1.96, 
 06/03/09, 16:00,   5.2,  36,   0.5,   0.9,   1.7,   0.0,  1.00, 
 06/03/09, 17:00,   4.4,  49,   0.5,   0.9,   1.7,   0.0,  0.41, 
 06/03/09, 18:00,   2.4,  79,   0.4,   0.9,   1.7,   0.0,  0.07, 
 06/03/09, 19:00,   1.9,  85,   0.4,   0.9,   1.7,   0.0,  0.00, 
 06/03/09, 20:00,   1.6,  89,   0.4,   0.9,   1.7,   0.0,  0.00, 
 06/03/09, 21:00,   1.8,  89,   0.4,   0.9,   1.7,   0.0,  0.00, 
 06/03/09, 22:00,   1.7,  88,   0.4,   0.9,   1.7,   0.0,  0.00, 
 06/03/09, 23:00,   2.0,  87,   0.5,   0.9,   1.7,   0.0,  0.00, 
 06/03/10, 00:00,   1.8,  89,   0.5,   0.9,   1.7,   0.0,  0.00, 
 06/03/10, 01:00,   2.4,  81,   0.5,   0.9,   1.7,   0.0,  0.00, 
 06/03/10, 02:00,   2.5,  80,   0.5,   0.9,   1.7,   0.0,  0.00, 
 06/03/10, 03:00,   1.0,  98,   0.5,   0.9,   1.7,   0.0,  0.00, 
 06/03/10, 04:00,   1.0,  99,   0.5,   0.9,   1.7,   0.0,  0.00, 
 06/03/10, 05:00,   0.7,  99,   0.5,   0.9,   1.7,   0.0,  0.00, 
 06/03/10, 06:00,   1.1,  96,   0.5,   0.9,   1.7,   0.0,  0.00, 
 06/03/10, 07:00,   0.6,  99,   0.5,   0.9,   1.7,   0.0,  0.00, 
 06/03/10, 08:00,   1.2,  99,   0.5,   0.9,   1.7,   0.0,  0.16, 
 06/03/10, 09:00,   1.6,  99,   0.5,   0.9,   1.7,   0.0,  0.44, 
 06/03/10, 10:00,   2.4,  99,   0.5,   0.9,   1.7,   0.0,  0.77, 
 06/03/10, 11:00,   2.9,  97,   0.5,   0.9,   1.7,   0.0,  0.72, 
 06/03/10, 12:00,   5.0,  87,   0.5,   0.9,   1.7,   0.0,  1.60, 
 06/03/10, 13:00,   4.7,  84,   0.5,   0.9,   1.7,   0.0,  1.30, 
 06/03/10, 14:00,   4.9,  84,   0.5,   0.9,   1.7,   0.0,  1.65, 
 06/03/10, 15:00,   4.5,  83,   0.5,   0.9,   1.7,   0.0,  0.93, 
 06/03/10, 16:00,   2.7,  99,   0.5,   0.9,   1.7,   0.0,  0.32, 
 06/03/10, 17:00,   2.4,  99,   0.5,   1.0,   1.7,   0.5,  0.17, 
 06/03/10, 18:00,   1.9,  99,   0.5,   1.0,   1.7,   0.5,  0.00, 
 06/03/10, 19:00,   0.9,  99,   0.6,   1.0,   1.7,   1.0,  0.00, 
 06/03/10, 20:00,   0.7,  99,   0.6,   1.0,   1.7,   1.0,  0.00, 
 06/03/10, 21:00,   1.0,  99,   0.6,   1.0,   1.7,   0.5,  0.00, 
 06/03/10, 22:00,   1.1,  99,   0.6,   1.0,   1.7,   0.0,  0.00, 
 06/03/10, 23:00,   2.0,  99,   0.6,   1.0,   1.7,   0.5,  0.00, 
 06/03/11, 00:00,   1.5,  99,   0.6,   1.1,   1.7,   0.0,  0.00, 
 06/03/11, 01:00,   1.3,  99,   0.6,   1.1,   1.7,   0.5,  0.00, 
 06/03/11, 02:00,   1.2,  99,   0.6,   1.0,   1.7,   0.0,  0.00, 
 06/03/11, 03:00,   1.5,  99,   0.6,   1.0,   1.7,   0.5,  0.00, 
 06/03/11, 04:00,   1.4,  99,   0.6,   1.1,   1.7,   0.0,  0.00, 
 06/03/11, 05:00,   0.3,  99,   0.6,   1.0,   1.7,   0.0,  0.00, 
 06/03/11, 06:00,   0.9,  99,   0.6,   1.1,   1.7,   0.0,  0.00, 
 06/03/11, 07:00,   0.4,  99,   0.7,   1.0,   1.7,   0.0,  0.06, 
 06/03/11, 08:00,   2.7,  99,   0.7,   1.1,   1.7,   0.0,  0.72, 
 06/03/11, 09:00,   4.2,  92,   0.7,   1.0,   1.7,   0.0,  1.46, 
 06/03/11, 10:00,   4.8,  95,   0.7,   1.1,   1.7,   0.0,  2.23, 
 06/03/11, 11:00,   7.6,  74,   0.8,   1.1,   1.7,   0.0,  2.62, 
 06/03/11, 12:00,   6.5,  64,   0.8,   1.1,   1.7,   0.0,  1.82, 
 06/03/11, 13:00,   7.0,  59,   0.8,   1.1,   1.7,   0.0,  1.63, 
 06/03/11, 14:00,   6.0,  63,   1.0,   1.2,   1.7,   0.0,  1.43, 
 06/03/11, 15:00,   6.6,  64,   1.1,   1.2,   1.7,   0.0,  1.30, 
 06/03/11, 16:00,   7.2,  61,   1.3,   1.2,   1.7,   0.5,  0.61, 
 06/03/11, 17:00,   6.1,  68,   1.4,   1.4,   1.7,   0.0,  0.93, 
 06/03/11, 18:00,   4.8,  77,   1.4,   1.5,   1.7,   0.0,  0.15, 
 06/03/11, 19:00,   3.9,  81,   1.5,   1.5,   1.7,   0.0,  0.00, 
 06/03/11, 20:00,   3.7,  85,   1.5,   1.6,   1.7,   0.0,  0.00, 
 06/03/11, 21:00,   3.2,  87,   1.5,   1.6,   1.7,   0.0,  0.00, 
 06/03/11, 22:00,   3.7,  85,   1.4,   1.7,   1.8,   0.0,  0.00, 
 06/03/11, 23:00,   3.3,  89,   1.4,   1.7,   1.8,   0.0,  0.00, 
 06/03/12, 00:00,   3.5,  91,   1.4,   1.7,   1.8,   0.0,  0.00, 
 06/03/12, 01:00,   3.6,  85,   1.4,   1.7,   1.8,   0.0,  0.00, 
 06/03/12, 02:00,   3.2,  90,   1.4,   1.6,   1.8,   0.0,  0.00, 
 06/03/12, 03:00,   3.2,  88,   1.4,   1.7,   1.8,   0.0,  0.00, 
 06/03/12, 04:00,   2.9,  91,   1.3,   1.7,   1.8,   0.0,  0.00, 
 06/03/12, 05:00,   3.0,  90,   1.3,   1.7,   1.8,   0.0,  0.00, 
 06/03/12, 06:00,   2.2,  99,   1.3,   1.7,   1.9,   0.0,  0.00, 
 06/03/12, 07:00,   2.2,  99,   1.3,   1.7,   1.9,   0.0,  0.00, 
 06/03/12, 08:00,   1.9,  99,   1.3,   1.7,   1.9,   0.0,  0.00, 
 06/03/12, 09:00,   0.8,  99,   1.3,   1.7,   1.9,   2.0,  0.00, 
 06/03/12, 10:00,   0.4,  99,   1.3,   1.6,   1.9,   2.5,  0.02, 
 06/03/12, 11:00,   0.3,  99,   1.3,   1.7,   1.9,   1.5,  0.07, 
 06/03/12, 12:00,   0.0,  99,   1.2,   1.6,   1.9,   0.5,  0.09, 
 06/03/12, 13:00,   0.6,  99,   1.2,   1.6,   1.9,   0.5,  0.12, 
 06/03/12, 14:00,   0.8,  99,   1.2,   1.7,   1.9,   0.0,  0.12, 
 06/03/12, 15:00,   0.0,  99,   1.2,   1.7,   1.9,   0.5,  0.14, 
 06/03/12, 16:00,  -0.7,  99,   1.2,   1.7,   2.0,   0.0,  0.05, 
 06/03/12, 17:00,  -2.1,  99,   1.2,   1.7,   2.0,   1.0,  0.00, 
 06/03/12, 18:00,  -2.2,  99,   1.1,   1.7,   2.0,   0.0,  0.00, 
 06/03/12, 19:00,  -3.2,  99,   1.1,   1.5,   2.0,   0.5,  0.00, 
 06/03/12, 20:00,  -3.9,  98,   1.1,   1.5,   2.0,   0.0,  0.00, 
 06/03/12, 21:00,  -4.6,  96,   1.1,   1.6,   1.9,   0.5,  0.00, 
 06/03/12, 22:00,  -4.8,  98,   1.1,   1.6,   2.0,   0.5,  0.00, 
 06/03/12, 23:00,  -5.7,  93,   1.1,   1.6,   2.0,   0.5,  0.00, 
 06/03/13, 00:00,  -6.2,  92,   1.0,   1.5,   2.0,   0.0,  0.00, 
 06/03/13, 01:00,  -6.7,  91,   1.0,   1.6,   2.0,   0.0,  0.00, 
 06/03/13, 02:00,  -7.5,  93,   1.0,   1.5,   2.0,   0.5,  0.00, 
 06/03/13, 03:00,  -8.1,  93,   1.0,   1.6,   2.0,   0.0,  0.00, 
 06/03/13, 04:00,  -8.8,  92,   1.0,   1.4,   2.0,   0.0,  0.00, 
 06/03/13, 05:00,  -9.2,  89,   1.0,   1.5,   2.0,   0.0,  0.00, 
 06/03/13, 06:00,  -9.3,  92,   1.0,   1.4,   1.9,   0.0,  0.00, 
 06/03/13, 07:00,  -9.7,  93,   0.9,   1.4,   2.0,   0.5,  0.03, 
 06/03/13, 08:00,  -9.4,  89,   0.8,   1.4,   1.9,   0.0,  0.38, 
 06/03/13, 09:00,  -9.0,  83,   0.9,   1.4,   1.9,   0.0,  0.71, 
 06/03/13, 10:00,  -8.0,  82,   0.9,   1.4,   2.0,   0.0,  1.20, 
 06/03/13, 11:00,  -8.0,  80,   0.9,   1.4,   2.0,   0.0,  1.24, 
 06/03/13, 12:00,  -7.1,  75,   0.8,   1.4,   2.0,   0.0,  1.28, 
 06/03/13, 13:00,  -7.1,  69,   0.9,   1.4,   2.0,   0.0,  1.18, 
 06/03/13, 14:00,  -6.1,  64,   0.9,   1.4,   2.0,   0.0,  1.03, 
 06/03/13, 15:00,  -7.1,  60,   0.9,   1.4,   2.1,   0.5,  1.01, 
 06/03/13, 16:00,  -7.9,  64,   0.9,   1.4,   2.1,   0.0,  0.96, 
 06/03/13, 17:00,  -8.7,  67,   0.9,   1.4,   2.1,   0.0,  0.60, 
 06/03/13, 18:00,  -9.1,  73,   0.8,   1.4,   2.0,   0.0,  0.28, 
 06/03/13, 19:00,  -9.6,  81,   0.8,   1.4,   2.0,   0.0,  0.00, 
 06/03/13, 20:00,  -9.9,  88,   0.8,   1.3,   2.0,   0.0,  0.00, 
 06/03/13, 21:00,  -9.9,  88,   0.7,   1.3,   2.0,   0.0,  0.00, 
 06/03/13, 22:00,  -9.9,  88,   0.8,   1.3,   2.0,   0.0,  0.00, 
 06/03/13, 23:00, -10.5,  91,   0.7,   1.3,   2.0,   0.0,  0.00, 
 06/03/14, 00:00, -11.5,  81,   0.8,   1.3,   2.0,   0.5,  0.00, 
 06/03/14, 01:00, -11.3,  78,   0.7,   1.3,   2.0,   0.0,  0.00, 
 06/03/14, 02:00, -11.1,  71,   0.7,   1.3,   2.0,   0.0,  0.00, 
 06/03/14, 03:00, -12.2,  81,   0.6,   1.3,   2.0,   0.0,  0.00, 
 06/03/14, 04:00, -13.1,  88,   0.6,   1.3,   2.0,   0.0,  0.00, 
 06/03/14, 05:00, -12.5,  92,   0.6,   1.1,   2.0,   0.0,  0.00, 
 06/03/14, 06:00, -12.5,  87,   0.6,   1.2,   2.0,   0.0,  0.00, 
 06/03/14, 07:00, -10.8,  90,   0.6,   1.1,   2.0,   0.0,  0.05, 
 06/03/14, 08:00,  -9.6,  86,   0.5,   1.1,   2.0,   0.0,  0.40, 
 06/03/14, 09:00,  -8.6,  77,   0.5,   1.1,   2.0,   0.0,  1.31, 
 06/03/14, 10:00,  -6.8,  77,   0.5,   1.2,   2.0,   0.0,  1.70, 
 06/03/14, 11:00,  -5.5,  76,   0.5,   1.2,   2.0,   0.0,  1.56, 
 06/03/14, 12:00,  -5.5,  75,   0.5,   1.2,   2.0,   0.0,  1.20, 
 06/03/14, 13:00,  -6.1,  92,   0.5,   1.1,   2.0,   0.0,  0.86, 
 06/03/14, 14:00,  -6.6,  97,   0.5,   1.1,   2.0,   0.0,  0.81, 
 06/03/14, 15:00,  -7.3,  81,   0.6,   1.1,   2.0,   1.0,  0.65, 
 06/03/14, 16:00,  -7.3,  80,   0.6,   1.1,   2.0,   0.0,  0.87, 
 06/03/14, 17:00,  -7.7,  74,   0.6,   1.1,   2.0,   0.0,  0.70, 
 06/03/14, 18:00,  -8.5,  78,   0.6,   1.1,   2.0,   0.0,  0.20, 
 06/03/14, 19:00,  -9.0,  93,   0.6,   1.1,   2.0,   0.0,  0.00, 
 06/03/14, 20:00,  -9.1,  85,   0.4,   1.1,   2.0,   0.0,  0.00, 
 06/03/14, 21:00,  -9.2,  85,   0.4,   1.1,   2.0,   0.0,  0.00, 
 06/03/14, 22:00,  -9.8,  84,   0.4,   1.1,   2.0,   0.5,  0.00, 
 06/03/14, 23:00,  -9.3,  77,   0.4,   1.1,   2.0,   0.0,  0.00, 
 06/03/15, 00:00,  -9.9,  79,   0.4,   1.1,   2.0,   0.0,  0.00, 
 06/03/15, 01:00,  -9.3,  73,   0.4,   1.0,   2.0,   0.0,  0.00, 
 06/03/15, 02:00,  -9.1,  79,   0.4,   1.0,   2.0,   0.0,  0.00, 
 06/03/15, 03:00,  -8.8,  81,   0.4,   1.0,   1.9,   0.0,  0.00, 
 06/03/15, 04:00,  -8.7,  84,   0.4,   1.0,   1.9,   0.0,  0.00, 
 06/03/15, 05:00,  -8.0,  82,   0.4,   1.0,   1.9,   0.0,  0.00, 
 06/03/15, 06:00,  -8.7,  83,   0.4,   1.0,   1.9,   0.0,  0.00, 
 06/03/15, 07:00,  -5.9,  71,   0.4,   1.0,   1.9,   0.0,  0.11, 
 06/03/15, 08:00,  -3.3,  49,   0.4,   1.0,   1.9,   0.0,  0.95, 
 06/03/15, 09:00,  -2.0,  48,   0.4,   1.0,   1.9,   0.0,  1.76, 
 06/03/15, 10:00,  -1.9,  74,   0.5,   1.0,   1.9,   0.0,  2.42, 
 06/03/15, 11:00,   1.8,  58,   0.5,   1.0,   1.9,   0.0,  2.93, 
 06/03/15, 12:00,   3.2,  51,   0.5,   1.0,   1.9,   0.0,  3.17, 
 06/03/15, 13:00,   4.6,  35,   0.5,   1.0,   1.9,   0.0,  3.20, 
 06/03/15, 14:00,   5.6,  39,   0.5,   1.0,   2.0,   0.0,  2.95, 
 06/03/15, 15:00,   6.1,  35,   0.5,   0.9,   1.9,   0.0,  2.48, 
 06/03/15, 16:00,   4.9,  37,   0.4,   0.9,   1.9,   0.0,  1.83, 
 06/03/15, 17:00,   4.2,  41,   0.5,   0.9,   1.9,   0.0,  1.01, 
 06/03/15, 18:00,   2.5,  53,   0.5,   0.9,   2.0,   0.0,  0.26, 
 06/03/15, 19:00,   0.4,  68,   0.5,   0.9,   1.9,   0.0,  0.00, 
 06/03/15, 20:00,   0.0,  62,   0.5,   0.9,   1.9,   0.0,  0.00, 
 06/03/15, 21:00,  -1.0,  67,   0.5,   0.9,   1.9,   0.0,  0.00, 
 06/03/15, 22:00,  -0.7,  64,   0.5,   0.9,   1.9,   0.0,  0.00, 
 06/03/15, 23:00,  -1.6,  71,   0.5,   0.9,   1.9,   0.0,  0.00, 
 06/03/16, 00:00,  -0.4,  58,   0.5,   0.9,   1.9,   0.0,  0.00, 
 06/03/16, 01:00,   0.3,  44,   0.5,   0.9,   1.9,   0.0,  0.00, 